Tracking 30289 objects as of 29-Apr-2025
HD Live streaming from Space Station
objects crossing your sky now

STARLINK-1294

Track STARLINK-1294 now!
10-day predictions
STARLINK-1294 is classified as:


NORAD ID: 45551
Int'l Code: 2020-025W
Perigee: 517.6 km
Apogee: 526.2 km
Inclination: 53.1 °
Period: 94.9 minutes
Semi major axis: 6892 km
RCS: Unknown
Launch date: April 22, 2020
Source: United States (US)
Launch site: AIR FORCE EASTERN TEST RANGE (AFETR)
Your satellite tracking list
Your tracking list is empty




NASA's NSSDC Master Catalog

Two Line Element Set (TLE):
1 45551U 20025W   25119.08369268  .00125997  00000-0  61953-2 0  9998
2 45551  53.0509  55.4206 0006214  92.5105 267.6600 15.17050210277387
Source of the keplerian elements: AFSPC